Weather History for Tehachapi, CA

Change the Weather History Date:

Wednesday, June 26, 2013

  Actual Average Record
Temperature  
Mean Temperature 70 °F -  
Max Temperature 82 °F 83 °F 82 °F (2011)
Min Temperature 57 °F 55 °F 42 °F (2012)
Cooling Degree Days 4    
Growing Degree Days 20 (Base 50)    
Moisture  
Dew Point 55 °F    
Average Humidity 58    
Maximum Humidity 88    
Minimum Humidity 39    
Precipitation  
Precipitation 0.00 in - - ()
Sea Level Pressure  
Sea Level Pressure 30.14 in    
Wind  
Wind Speed 11 mph (WNW)    
Max Wind Speed 20 mph    
Max Gust Speed 24 mph    
Visibility 10 miles    
Events      
Averages and records for this station are not official NWS values.
T = Trace of Precipitation, MM = Missing Value Source: NWS Daily Summary

Daily Weather History Graph

Daily Weather History Graph

Search for Another Location

Airport:

Trip Planner

Search our weather history database for the weather conditions in past years. The results will help you decide how hot, cold, wet, or windy it might be!

Date:

Astronomy

Jun. 26, 2013 Rise Set
Actual Time 5:41 AM PDT 8:12 PM PDT
Civil Twilight 5:11 AM PDT 8:41 PM PDT
Nautical Twilight 4:34 AM PDT 9:18 PM PDT
Astronomical Twilight 3:54 AM PDT 9:59 PM PDT
Moon 10:48 PM PDT (6/26) 9:29 AM PDT (6/26)
Length of Visible Light 15h 30m
Length of Day
14h 30m
Waning Gibbous, 84% of the Moon is Illuminated
Jun 26
Waning Gibbous
Jun 29
Last Quarter
Jul 8
New
Jul 15
First Quarter
Jul 22
Full

Hourly Weather History & Observations

Time (PDT) Temp. Heat Index Dew Point Humidity Pressure Visibility Wind Dir Wind Speed Gust Speed Precip Events Conditions
12:15 AM 66.2 °F - 51.8 °F 60% 30.11 in 10.0 mi WNW 10.4 mph - N/A   Clear
12:35 AM 66.2 °F - 51.8 °F 60% 30.10 in 10.0 mi WNW 10.4 mph - N/A   Clear
12:55 AM 64.4 °F - 53.6 °F 68% 30.10 in 10.0 mi West 9.2 mph - N/A   Clear
1:15 AM 64.4 °F - 53.6 °F 68% 30.10 in 10.0 mi WNW 11.5 mph - N/A   Clear
1:35 AM 64.4 °F - 53.6 °F 68% 30.10 in 10.0 mi West 9.2 mph - N/A   Clear
1:55 AM 62.6 °F - 53.6 °F 72% 30.10 in 10.0 mi WNW 9.2 mph - N/A   Clear
2:15 AM 64.4 °F - 53.6 °F 68% 30.10 in 10.0 mi WNW 9.2 mph - N/A   Clear
2:35 AM 64.4 °F - 53.6 °F 68% 30.10 in 10.0 mi WNW 9.2 mph - N/A   Clear
2:55 AM 62.6 °F - 53.6 °F 72% 30.11 in 10.0 mi West 6.9 mph - N/A   Clear
3:15 AM 62.6 °F - 53.6 °F 72% 30.11 in 10.0 mi West 8.1 mph - N/A   Clear
3:35 AM 62.6 °F - 53.6 °F 72% 30.11 in 10.0 mi West 10.4 mph - N/A   Clear
3:55 AM 62.6 °F - 53.6 °F 72% 30.11 in 10.0 mi WSW 8.1 mph - N/A   Clear
4:15 AM 62.6 °F - 53.6 °F 72% 30.12 in 10.0 mi West 8.1 mph - N/A   Clear
4:35 AM 60.8 °F - 53.6 °F 77% 30.12 in 10.0 mi West 6.9 mph - N/A   Clear
4:55 AM 59.0 °F - 53.6 °F 82% 30.12 in 10.0 mi West 4.6 mph - N/A   Clear
5:15 AM 59.0 °F - 53.6 °F 82% 30.12 in 10.0 mi West 5.8 mph - N/A   Clear
5:35 AM 59.0 °F - 53.6 °F 82% 30.13 in 10.0 mi WNW 6.9 mph - N/A   Clear
5:55 AM 57.2 °F - 53.6 °F 88% 30.13 in 10.0 mi NNW 4.6 mph - N/A   Clear
6:15 AM 57.2 °F - 53.6 °F 88% 30.14 in 10.0 mi NW 4.6 mph - N/A   Clear
6:35 AM 59.0 °F - 53.6 °F 82% 30.13 in 10.0 mi NW 5.8 mph - N/A   Clear
6:55 AM 62.6 °F - 55.4 °F 77% 30.13 in 10.0 mi NW 5.8 mph - N/A   Clear
7:15 AM 66.2 °F - 55.4 °F 68% 30.14 in 10.0 mi WNW 6.9 mph - N/A   Clear
7:55 AM 68.0 °F - 53.6 °F 60% 30.15 in 10.0 mi WNW 8.1 mph - N/A   Clear
8:15 AM 68.0 °F - 53.6 °F 60% 30.15 in 10.0 mi NW 11.5 mph - N/A   Clear
8:35 AM 69.8 °F - 53.6 °F 56% 30.15 in 10.0 mi NW 12.7 mph - N/A   Clear
8:55 AM 71.6 °F - 53.6 °F 53% 30.15 in 10.0 mi WNW 15.0 mph - N/A   Clear
9:15 AM 71.6 °F - 53.6 °F 53% 30.15 in 10.0 mi NW 13.8 mph 18.4 mph N/A   Clear
9:35 AM 73.4 °F - 53.6 °F 50% 30.15 in 10.0 mi NW 12.7 mph 19.6 mph N/A   Clear
9:55 AM 73.4 °F - 53.6 °F 50% 30.15 in 10.0 mi NW 13.8 mph 19.6 mph N/A   Clear
10:15 AM 73.4 °F - 53.6 °F 50% 30.15 in 10.0 mi WNW 15.0 mph 18.4 mph N/A   Clear
10:35 AM 75.2 °F - 53.6 °F 47% 30.16 in 10.0 mi NW 16.1 mph 23.0 mph N/A   Clear
10:55 AM 75.2 °F - 53.6 °F 47% 30.15 in 10.0 mi NW 17.3 mph - N/A   Clear
11:15 AM 77.0 °F - 53.6 °F 44% 30.15 in 10.0 mi NW 18.4 mph - N/A   Clear
11:35 AM 77.0 °F - 53.6 °F 44% 30.15 in 10.0 mi NW 19.6 mph 24.2 mph N/A   Clear
11:55 AM 77.0 °F - 55.4 °F 47% 30.15 in 10.0 mi NW 16.1 mph 20.7 mph N/A   Clear
12:15 PM 78.8 °F - 55.4 °F 44% 30.15 in 10.0 mi NW 16.1 mph - N/A   Clear
12:35 PM 78.8 °F - 55.4 °F 44% 30.15 in 10.0 mi NW 17.3 mph 23.0 mph N/A   Clear
12:55 PM 80.6 °F 80.8 °F 57.2 °F 45% 30.15 in 10.0 mi NW 16.1 mph - N/A   Clear
1:15 PM 80.6 °F 80.8 °F 57.2 °F 45% 30.15 in 10.0 mi NW 15.0 mph - N/A   Clear
1:35 PM 80.6 °F 80.8 °F 57.2 °F 45% 30.15 in 10.0 mi NW 17.3 mph 23.0 mph N/A   Clear
1:55 PM 80.6 °F 80.8 °F 57.2 °F 45% 30.15 in 10.0 mi NW 18.4 mph 21.9 mph N/A   Clear
2:15 PM 82.4 °F 82.0 °F 57.2 °F 42% 30.14 in 10.0 mi NW 19.6 mph - N/A   Clear
2:35 PM 82.4 °F 82.0 °F 57.2 °F 42% 30.14 in 10.0 mi NNW 17.3 mph - N/A   Clear
2:55 PM 82.4 °F 82.0 °F 57.2 °F 42% 30.14 in 10.0 mi NW 17.3 mph 23.0 mph N/A   Clear
3:15 PM 82.4 °F 81.7 °F 55.4 °F 39% 30.14 in 10.0 mi NW 17.3 mph 24.2 mph N/A   Clear
3:35 PM 82.4 °F 81.7 °F 55.4 °F 39% 30.14 in 10.0 mi NW 17.3 mph 24.2 mph N/A   Clear
3:55 PM 82.4 °F 81.7 °F 55.4 °F 39% 30.14 in 10.0 mi NW 17.3 mph 23.0 mph N/A   Clear
4:15 PM 80.6 °F 80.5 °F 55.4 °F 42% 30.14 in 10.0 mi NW 17.3 mph 24.2 mph N/A   Clear
4:35 PM 80.6 °F 80.5 °F 55.4 °F 42% 30.14 in 10.0 mi WNW 17.3 mph 21.9 mph N/A   Clear
4:55 PM 80.6 °F 80.5 °F 55.4 °F 42% 30.13 in 10.0 mi NW 16.1 mph 21.9 mph N/A   Clear
5:15 PM 80.6 °F 80.5 °F 55.4 °F 42% 30.13 in 10.0 mi WNW 16.1 mph - N/A   Clear
5:35 PM 80.6 °F 80.5 °F 55.4 °F 42% 30.13 in 10.0 mi NW 15.0 mph 23.0 mph N/A   Clear
5:55 PM 80.6 °F 80.5 °F 55.4 °F 42% 30.13 in 10.0 mi NW 16.1 mph 21.9 mph N/A   Clear
6:15 PM 78.8 °F - 55.4 °F 44% 30.13 in 10.0 mi NW 17.3 mph 23.0 mph N/A   Clear
6:35 PM 78.8 °F - 57.2 °F 47% 30.13 in 10.0 mi WNW 17.3 mph 21.9 mph N/A   Clear
6:55 PM 77.0 °F - 57.2 °F 50% 30.13 in 10.0 mi NW 18.4 mph 23.0 mph N/A   Clear
7:15 PM 77.0 °F - 57.2 °F 50% 30.14 in 10.0 mi NW 17.3 mph 23.0 mph N/A   Clear
7:35 PM 75.2 °F - 57.2 °F 53% 30.14 in 10.0 mi WNW 15.0 mph 18.4 mph N/A   Clear
7:55 PM 75.2 °F - 57.2 °F 53% 30.15 in 10.0 mi NW 12.7 mph - N/A   Clear
8:15 PM 73.4 °F - 57.2 °F 57% 30.15 in 10.0 mi WNW 11.5 mph - N/A   Clear
8:35 PM 73.4 °F - 57.2 °F 57% 30.15 in 10.0 mi WNW 9.2 mph 16.1 mph N/A   Clear
8:55 PM 71.6 °F - 57.2 °F 60% 30.16 in 10.0 mi WNW 10.4 mph - N/A   Clear
9:15 PM 71.6 °F - 57.2 °F 60% 30.17 in 10.0 mi West 11.5 mph - N/A   Clear
9:35 PM 71.6 °F - 57.2 °F 60% 30.18 in 10.0 mi WNW 10.4 mph - N/A   Clear
9:55 PM 69.8 °F - 57.2 °F 64% 30.18 in 10.0 mi West 10.4 mph - N/A   Clear
10:15 PM 68.0 °F - 57.2 °F 68% 30.19 in 10.0 mi West 8.1 mph - N/A   Clear
10:35 PM 68.0 °F - 57.2 °F 68% 30.19 in 10.0 mi WNW 6.9 mph - N/A   Clear
10:55 PM 68.0 °F - 57.2 °F 68% 30.20 in 10.0 mi WNW 6.9 mph - N/A   Clear
11:15 PM 68.0 °F - 57.2 °F 68% 30.20 in 10.0 mi NW 5.8 mph - N/A   Clear
11:35 PM 66.2 °F - 57.2 °F 73% 30.20 in 10.0 mi WNW 5.8 mph - N/A   Clear
11:55 PM 64.4 °F - 55.4 °F 73% 30.20 in 10.0 mi West 6.9 mph - N/A   Clear